Tracking 25405 objects as of 26-Jan-2022
HD Live streaming from Space Station
objects crossing your sky now

STARLINK-1558

Track STARLINK-1558 now!
10-day predictions
STARLINK-1558 is classified as:


NORAD ID: 46035
Int'l Code: 2020-055J
Perigee: 553.5 km
Apogee: 555.3 km
Inclination: 53.1 °
Period: 95.6 minutes
Semi major axis: 6925 km
RCS: Unknown
Launch date: August 7, 2020
Source: United States (US)
Launch site: AIR FORCE EASTERN TEST RANGE (AFETR)
aabbcc
Your satellite tracking list
Your tracking list is empty




NASA's NSSDC Master Catalog

Two Line Element Set (TLE):
1 46035U 20055J   22025.46391254  .00000101  00000-0  25656-4 0  9995
2 46035  53.0547  39.3452 0001328  80.4084 279.7055 15.06387647 82178
Source of the keplerian elements: AFSPC